Find Starlink 31560

NORAD ID: 59361 Int'l Des: 2024-060 Owner: SPXS Country: US Constellation: starlink operational
LEOCIRCULAR

現在のビュー

3D地球を読み込み中...

About Starlink 31560

Starlink 31560 (NORAD 59361) is a starlink constellation satellite (v2 mini) launched Mar 31, 2024 by SPXS of US. It operates in LEO, CIRCULAR orbit with a mass of 730.00 kg.

次回通過

Passes for default location (London). Set your location on the main map for personalized predictions.

高度履歴

Loading altitude history...

軌道要素

1 59361U 24060P 26265.91225827 .00001567 00000-0 66484-4 0 9994
2 59361 43.0001 226.1974 0001881 274.5740 85.4897 15.27563438140226
Epoch: Sep 22, 2026 • Age: 7 hours

現在のステータス

高度 482.9 km
遠地点 / 近地点 N/A
速度 7.63 km/s
衛星直下点 1.62°N, 33.43°W
打ち上げ日 Mar 31, 2024
運用期間 2.4 years
タイプ internet

技術仕様

分類 Payload
質量 730.00 kg
乾燥質量 700.00 kg
長さ 0.30 m
スパン 29.00 m
形状 ? Box + pan
製造者 SPXS
バスタイプ Starlink V2M
フェーズステータス In Orbit
所有者/国 SPXS/US

Most Searched